This demonstration page uses our WeatherBlox Daily Observations layout. Learn more.

Hourly Observations for December 21, 2017

Temp ( °F °C ) Dew Point ( °F °C ) Humidity (%) Winds ( mph kmh ) Pressure ( in mb ) Visibility ( mi km ) Precip ( " mm )
12:53 am 00:53 Mostly Cloudy 27 -2.8 21 -6.1 78 78 E 3 6 30.1 1019 10 16.0934 0 0
1:53 am 01:53 Clear 25 -3.9 21 -6.1 85 85 Calm 30.09 1019 10 16.0934 0 0
2:53 am 02:53 Clear 25 -3.9 21 -6.1 85 85 NNE 3 6 30.1 1019 10 16.0934 0 0
3:53 am 03:53 Clear 25 -3.9 20 -6.7 81 81 Calm 30.09 1019 10 16.0934 0 0
4:53 am 04:53 Clear 23 -5 20 -6.7 88 88 Calm 30.08 1019 10 16.0934 0 0
5:53 am 05:53 Clear 23 -5 20 -6.7 88 88 NE 3 6 30.1 1019 10 16.0934 0 0
6:53 am 06:53 Clear 23 -5 20 -6.7 88 88 NE 5 7 30.11 1020 10 16.0934 0 0
7:53 am 07:53 Clear 24 -4.4 20 -6.7 84 84 NNE 6 9 30.12 1020 10 16.0934 0 0
8:53 am 08:53 Sunny 31 -0.6 24 -4.4 76 76 NE 3 6 30.13 1020 10 16.0934 0 0
9:53 am 09:53 Sunny 35 1.7 25 -3.9 67 67 E 6 9 30.12 1020 10 16.0934 0 0
10:53 am 10:53 Sunny 40 4.4 25 -3.9 55 55 VRB 3 6 30.12 1020 10 16.0934 0 0
11:53 am 11:53 Sunny 45 7.2 24 -4.4 44 44 E 6 9 30.08 1019 10 16.0934 0 0
12:53 pm 12:53 Sunny 50 10 24 -4.4 36 36 VRB 7 11 30.03 1017 10 16.0934 0 0
1:53 pm 13:53 Sunny 54 12.2 23 -5 30 30 VRB 6 9 30.01 1016 10 16.0934 0 0
2:53 pm 14:53 Sunny 55 12.8 24 -4.4 30 30 SE 5 7 29.99 1016 10 16.0934 0 0
3:53 pm 15:53 Sunny 55 12.8 25 -3.9 31 31 VRB 3 6 29.98 1015 10 16.0934 0 0
4:53 pm 16:53 Mostly Cloudy 55 12.8 28 -2.2 35 35 VRB 6 9 29.99 1016 10 16.0934 0 0
5:53 pm 17:53 Clear 44 6.7 28 -2.2 53 53 Calm 29.99 1016 10 16.0934 0 0
6:53 pm 18:53 Clear 38 3.3 28 -2.2 68 68 Calm 29.98 1015 10 16.0934 0 0
7:53 pm 19:53 Clear 36 2.2 29 -1.7 76 76 Calm 29.98 1015 10 16.0934 0 0
8:53 pm 20:53 Partly Cloudy 37 2.8 29 -1.7 73 73 Calm 29.97 1015 10 16.0934 0 0
9:07 pm 21:07 Mostly Cloudy 39 3.9 30 -1.1 70 70 Calm 29.97 1015 10 16.0934 0 0
9:53 pm 21:53 Cloudy 44 6.7 35 1.7 71 71 ESE 5 7 29.96 1014 10 16.0934 0 0
10:53 pm 22:53 Cloudy 54 12.2 48 8.9 80 80 VRB 3 6 29.95 1014 10 16.0934 0 0
11:53 pm 23:53 Cloudy 50 10 45 7.2 83 83 S 3 6 29.94 1014 10 16.0934 0 0

Powered by AerisWeather